SCP
0 0 0 0 0 0 0 0 0 0 0 0 0 0 0 0 0 0 0 0 0 0 0 0 0 0 0 0 0 0 0 0 0 0 0 0 0 0
0 0 0 0 0 0 0 0 0 0 0 0 0 0 0 0 0 0 0 0 0 0 0 0 0 0 0 0 0 0 0 0 0 0 0 0 0 0
0 0 0 0 0 0 0 0 0 0 0 0 0 0 0 0 0 0 0 0 0 0 0 0 0 0 0 0 0 0 0 0 0 0 0 0 0 0
0 0 0 0 0 0 0 0 0 0 0 0 0 0 0 0 0 0 0 0 0 0 0 0 0 0 0 0 0 0 0 0 0 0 0 0 0 0
0 0 0 0 0 0 0 0 0 0 0 0 0 0 0 0 0 0 0 0 0 0 0 0 0 0 0 0 0 0 0 0 0 0 0 0 0 0
0 0 0 0 0 0 0 0 0 0 0 0 0 0 0 0 0 0 0 0 0 0 0 0 0 0 0 0 0 0 0 0 0 0 0 0 0 0
0 0 0 0 0 0 0 0 0 0 0 0 0 0 0 0 0 0 0 0 0 0 0 0 0 0 0 0 0 0 0 0 0 0 0 0 0 0
0 0 0 0 0 0 0 0 0 0 0 0 0 0 0 0 0 0 0 0 0 0 0 0 0 0 0 0 0 0 0 0 0 0 0 0 0 0
0 0 0 0 0 0 0 0 0 0 0 0 0 0 0 0 0 0 0 0 0 0 0 0 0 0 0 0 0 0 0 0 0 0 0 0 0 0
0 0 0 0 0 0 0 0 0 0 0 0 0 0 0 0 0 0 0 0 0 0 0 0 0 0 0 0 0 0 0 0 0 0 0 0 0 0
0 0 0 0 0 0 0 0 0 0 0 0 0 0 0 0 0 0 0 0 0 0 0 0 0 0 0 0 0 0 0 0 0 0 0 0 0 0
0 0 0 0 0 0 0 0 0 0 0 0 0 0 0 0 0 0 0 0 0 0 0 0 0 0 0 0 0 0 0 0 0 0 0 0 0 0
0 0 0 0 0 0 0 0 0 0 0 0 0 0 0 0 0 0 0 0 0 0 0 0 0 0 0 0 0 0 0 0 0 0 0 0 0 0
0 0 0 0 0 0 0 0 0 0 0 0 0 0 0 0 0 0 0 0 0 0 0 0 0 0 0 0 0 0 0 0 0 0 0 0 0 0
0 0 0 0 0 0 0 0 0 0 0 0 0 0 0 0 0 0 0 0 0 0 0 0 0 0 0 0 0 0 0 0 0 0 0 0 0 0
0 0 0 0 0 0 0 0 0 0 0 0 0 0 0 0 0 0 0 0 0 0 0 0 0 0 0 0 0 0 0 0 0 0 0 0 0 0
0 0 0 0 0 0 0 0 0 0 0 0 0 0 0 0 0 0 0 0 0 0 0 0 0 0 0 0 0 0 0 0 0 0 0 0 0 0
0 0 0 0 0 0 0 0 0 0 0 0 0 0 0 0 0 0 0 0 0 0 0 0 0 0 0 0 0 0 0 0 0 0 0 0 0 0
0 0 0 0 0 0 0 0 0 0 0 0 0 0 0 0 0 0 0 0 0 0 0 0 0 0 0 0 0 0 0 0 0 0 0 0 0 0
0 0 0 0 0 0 0 0 0 0 0 0 0 0 0 0 0 0 0 0 0 0 0 0 0 0 0 0 0 0 0 0 0 0 0 0 0 0
0 0 0 0 0 0 0 0 0 0 0 0 0 0 0 0 0 0 0 0 0 0 0 0 0 0 0 0 0 0 0 0 0 0 0 0 0 0
0 0 0 0 0 0 0 0 0 0 0 0 0 0 0 0 0 0 0 0 0 0 0 0 0 0 0 0 0 0 0 0 0 0 0 0 0 0
0 0 0 0 0 0 0 0 0 0 0 0 0 0 0 0 0 0 0 0 0 0 0 0 0 0 0 0 0 0 0 0 0 0 0 0 0 0
Wind_Speed
1 1 1 1 1 1 1 2 3 3 3 2 2 2 1 1 2 1 2 4 5 5 6 6 6 6 7 7 7 7 8 8 9 9 10 10 10 10
1 1 1 1 0 1 1 1 2 3 3 2 2 2 2 2 3 2 3 5 5 5 5 6 6 6 6 7 7 7 7 8 9 9 9 10 10 10
1 1 1 1 0 0 1 1 1 1 2 2 1 1 1 2 2 2 2 2 3 5 5 5 5 6 6 6 7 6 7 7 8 9 9 10 10 10
2 2 1 1 0 0 0 1 1 2 2 3 2 1 2 2 2 2 2 2 2 4 5 4 4 5 6 6 6 6 6 7 8 8 9 9 10 10
3 3 2 2 1 1 1 1 1 1 1 2 2 1 2 1 1 2 2 2 2 3 4 4 5 5 5 5 6 6 6 6 7 8 8 9 9 10
2 3 3 3 3 3 2 1 1 1 1 1 1 1 1 1 1 2 2 2 2 2 3 3 4 5 5 5 5 5 5 6 7 8 8 8 9 9
1 2 2 3 3 3 2 2 1 1 1 1 2 1 1 1 2 1 2 2 2 1 2 2 2 2 3 5 5 5 5 6 7 7 8 8 8 9
2 2 2 2 2 3 2 2 2 2 2 2 2 2 3 3 2 1 1 2 3 1 1 3 2 2 3 2 5 6 5 6 6 7 7 7 8 9
2 2 1 2 2 2 2 1 2 2 3 3 3 4 3 3 2 2 2 2 3 2 1 3 2 3 3 4 6 6 5 5 6 6 6 7 8 8
2 2 2 2 2 2 2 2 2 3 3 3 3 4 3 3 3 3 3 2 2 2 1 2 2 3 3 3 5 5 5 5 5 6 7 7 7 8
2 2 2 3 3 2 2 2 2 2 3 3 4 4 4 4 1 0 1 1 2 2 1 1 2 3 3 2 3 4 5 6 6 6 7 7 7 7
1 2 3 3 3 2 2 2 3 3 2 2 2 3 3 3 3 3 3 2 1 2 2 1 1 1 2 2 2 2 3 5 6 7 7 7 7 4
1 2 2 3 3 3 2 2 3 2 1 1 1 2 2 2 2 2 2 2 2 3 2 1 1 1 2 3 2 2 2 2 3 4 6 7 7 4
2 2 2 3 3 3 2 2 2 1 0 0 1 2 2 2 2 2 2 2 3 4 3 2 2 2 2 3 3 2 2 2 2 3 3 5 6 7
2 2 2 2 2 2 2 1 1 0 0 1 2 2 2 2 2 1 2 2 2 2 2 2 2 2 3 3 2 2 2 2 2 2 2 2 3 3
1 1 1 1 1 1 1 1 1 1 1 1 2 2 2 2 1 1 1 1 1 2 2 2 3 3 3 3 2 3 2 2 2 3 3 3 3 2
1 0 0 0 0 1 1 1 1 1 1 1 1 1 1 2 2 2 1 1 1 2 2 2 2 2 3 2 2 3 3 2 3 2 2 3 3 3
1 1 1 1 1 1 1 1 1 1 1 1 1 1 2 2 2 2 2 2 2 2 2 2 1 2 2 2 3 3 2 3 2 2 2 3 4 3
1 1 2 2 2 2 2 2 2 2 1 1 1 2 2 2 2 2 2 2 3 3 2 2 1 1 2 4 3 3 2 2 2 2 2 3 4 4
2 2 2 2 2 2 2 2 2 2 1 2 2 2 2 2 2 2 2 3 3 3 3 2 2 3 4 4 3 3 3 2 2 3 2 2 3 5
2 2 2 2 2 2 2 2 2 2 2 2 2 2 2 2 2 2 2 4 3 3 3 3 4 4 2 1 1 2 2 3 3 2 2 2 2 2
2 3 2 2 2 2 2 2 2 2 2 2 2 2 2 2 3 3 3 3 3 3 4 3 2 1 1 2 3 3 2 3 3 3 2 2 1 2
3 3 3 3 3 2 3 3 3 3 3 3 2 2 2 2 3 3 3 3 3 3 3 2 1 1 2 2 2 2 2 2 2 2 2 4 4 5
Wind_Direction
173 182 221 244 210 213 199 183 178 221 249 246 247 249 251 250 292 274 281 302 314 317 320 325 328 333 337 336 332 331 336 338 334 330 327 325 323 323
159 158 223 246 244 213 201 203 192 195 236 238 236 252 251 283 291 265 265 300 302 307 314 322 327 333 336 335 330 330 334 333 330 327 327 324 322 321
162 168 212 221 184 279 224 201 209 186 227 262 250 257 237 262 288 274 271 259 279 299 310 318 327 332 334 333 333 332 330 329 328 327 326 326 326 324
191 180 207 192 158 251 249 231 228 215 201 244 269 261 250 246 259 266 285 289 276 293 306 314 323 329 331 335 337 335 333 334 334 334 332 329 326 325
193 193 205 186 201 221 224 235 239 230 200 211 258 265 264 260 270 282 277 274 293 294 300 303 308 315 324 331 334 335 339 339 341 341 339 336 333 328
202 203 206 202 207 209 210 212 213 198 186 198 244 272 272 264 244 267 291 291 293 303 302 307 306 312 314 318 322 329 334 337 338 339 339 340 338 335
216 220 218 210 209 210 204 203 192 189 198 222 239 264 268 256 260 262 279 298 284 274 292 295 293 291 296 299 304 317 325 328 330 333 337 339 340 338
210 231 224 218 221 227 220 210 198 193 208 225 246 247 255 250 252 255 268 304 293 280 288 289 272 269 273 268 296 307 313 318 321 327 332 334 336 337
212 224 243 239 226 228 239 251 241 238 221 217 238 249 248 239 231 242 242 248 256 257 271 280 275 273 277 287 294 297 305 311 317 324 328 330 332 333
224 225 227 243 237 213 215 232 243 249 248 244 241 250 252 236 217 231 235 249 273 266 208 258 272 278 292 281 290 296 308 316 322 326 327 326 326 326
240 234 229 241 244 228 204 226 255 273 282 270 272 280 289 287 273 203 236 242 284 274 222 225 264 292 287 270 279 295 308 311 310 314 320 320 320 321
252 244 245 249 248 228 215 217 239 259 272 299 297 294 286 280 270 222 210 225 272 271 227 223 252 304 298 279 276 285 290 294 301 308 313 315 319 323
243 260 262 262 243 235 242 234 246 260 247 251 268 283 289 283 278 269 231 210 229 253 234 209 228 226 243 285 287 276 282 290 290 298 302 309 313 320
236 248 258 263 248 246 253 268 285 304 270 268 286 287 285 285 285 279 267 250 241 247 234 210 219 226 243 270 278 288 289 283 291 294 296 303 304 307
248 262 275 272 271 263 270 279 294 287 261 267 274 285 285 276 272 279 279 274 287 281 247 237 234 235 235 249 265 280 290 284 277 289 293 289 289 296
263 260 274 272 295 321 345 322 287 237 235 244 272 290 306 306 291 276 273 285 290 295 293 257 244 230 242 255 253 268 266 266 281 286 287 289 287 277
221 194 130 157 313 312 319 326 322 327 305 293 292 299 304 312 317 313 294 295 269 282 301 311 299 277 247 233 250 259 263 272 279 286 289 293 288 280
189 189 212 220 238 252 258 274 277 273 274 281 279 276 280 282 291 307 310 284 275 276 277 289 318 333 327 286 238 247 256 269 285 285 277 281 291 291
193 204 218 228 238 240 244 247 254 260 259 258 265 272 281 281 281 281 288 295 285 278 276 273 265 260 271 281 278 237 245 276 287 284 268 260 277 289
213 219 226 230 235 239 243 249 252 253 256 259 262 266 267 275 280 278 275 275 280 284 282 267 246 244 244 255 267 278 263 252 255 272 282 286 284 294
225 230 231 233 239 242 243 245 244 246 252 255 259 261 258 259 265 271 273 282 281 275 277 272 263 266 257 231 265 281 285 269 259 251 262 284 302 317
231 234 234 235 236 239 241 241 247 250 248 248 255 257 256 258 260 263 267 273 272 272 275 278 283 268 224 232 257 271 295 317 317 302 270 246 233 261
235 238 236 233 231 235 236 237 242 248 249 249 253 255 255 258 259 261 264 268 277 279 286 292 296 281 253 242 252 268 281 303 322 333 323 320 296 290